QUETZSAT 1              
1 37826U 11054A   19259.81952049 -.00000248  00000-0  00000-0 0  9996
2 37826   0.0087 232.2157 0002760 296.1489  45.1520  1.00272552 25197
BREEZE-M R/B            
1 37827U 11054B   19259.55257862  .00000104  00000-0  00000-0 0  9999
2 37827  17.1486 217.0828 5573838  87.5549 325.9274  2.07656146 59161
BREEZE-M DEB [TANK]     
1 37828U 11054C   19259.50415241  .00000042  00000-0  88789-4 0  9997
2 37828  49.4248 189.8668 5562125 184.6573 166.6230  4.66226291132061